Tracking 35275 objects as of 9-Sep-2026
HD Live streaming from Space Station
objects crossing your sky now

CZ-6 R/B

Track CZ-6 R/B now!
10-day predictions


NORAD ID: 44784
Int'l Code: 2019-076F
Launch date: November 13, 2019
Source: People's Republic of China (PRC)
Launch site: Taiyaun Space Center, China (TSC)

Note: This is a ROCKET BODY
Your satellite tracking list
Your tracking list is empty




NASA's NSSDC Master Catalog

Two Line Element Set (TLE):
1 44784U 19076F   26251.27697850  .00000122  00000-0  11930-3 0  9992
2 44784  45.0066 230.2283 0088579 220.1465 139.2807 14.18076333353486
Source of the keplerian elements: AFSPC